Weather History for Puerto Plata, Dominican Republic

Change the Weather History Date:

Friday, March 22, 2013

  Actual Average Record
Temperature  
Mean Temperature 78 °F -  
Max Temperature 86 °F 82 °F 89 °F (1998)
Min Temperature 70 °F 69 °F 65 °F (2014)
Cooling Degree Days 13    
Growing Degree Days 28 (Base 50)    
Moisture  
Dew Point 74 °F    
Average Humidity 83    
Maximum Humidity 94    
Minimum Humidity 70    
Precipitation  
Precipitation 0.00 in - - ()
Sea Level Pressure  
Sea Level Pressure 29.98 in    
Wind  
Wind Speed 3 mph ()    
Max Wind Speed 15 mph    
Max Gust Speed -    
Visibility 6.2 miles    
Events      
Averages and records for this station are not official NWS values.
T = Trace of Precipitation, MM = Missing Value Source: Averaged Metar Reports

Daily Weather History Graph

Daily Weather History Graph

Search for Another Location

Airport:

Trip Planner

Search our weather history database for the weather conditions in past years. The results will help you decide how hot, cold, wet, or windy it might be!

Date:

Astronomy

Mar. 22, 2013 Rise Set
Actual Time 6:44 AM AST 6:53 PM AST
Civil Twilight 6:22 AM AST 7:15 PM AST
Nautical Twilight 5:56 AM AST 7:41 PM AST
Astronomical Twilight 5:31 AM AST 8:07 PM AST
Moon 2:49 PM AST (3/22) 3:09 AM AST (3/22)
Length of Visible Light 12h 53m
Length of Day
12h 09m
Waxing Gibbous, 77% of the Moon is Illuminated
Mar 22
Waxing Gibbous
Mar 27
Full
Apr 3
Last Quarter
Apr 10
New
Apr 18
First Quarter

Hourly Weather History & Observations

Time (AST) Temp. Heat Index Dew Point Humidity Pressure Visibility Wind Dir Wind Speed Gust Speed Precip Events Conditions
2:00 AM 75 °F - 73 °F 90% 29.94 in 6 mi Calm Calm - -   Haze
2:00 AM 75.2 °F - 73.4 °F 94% 29.92 in 6.2 mi Calm Calm - N/A   Mostly Cloudy
5:00 AM 75 °F - 71 °F 84% 29.93 in 6 mi Calm Calm - -   Haze
5:00 AM 75.2 °F - 71.6 °F 89% 29.92 in 6.2 mi Calm Calm - N/A   Mostly Cloudy
8:00 AM 72 °F - 70 °F 90% 29.99 in 6 mi Calm Calm - -   Haze
8:00 AM 71.6 °F - 69.8 °F 94% 29.98 in 6.2 mi Calm Calm - N/A   Scattered Clouds
9:00 AM 78.8 °F - 71.6 °F 78% 29.98 in 6.2 mi Calm Calm - N/A   Partly Cloudy
10:00 AM 82.4 °F 89.5 °F 75.2 °F 79% 30.01 in 6.2 mi Calm Calm - N/A   Partly Cloudy
11:00 AM 83 °F - 76 °F 74% 30.03 in 6 mi NNE 6.7 mph - -   Haze
11:00 AM 82.4 °F 89.5 °F 75.2 °F 79% 30.01 in 6.2 mi NNE 8.1 mph - N/A   Partly Cloudy
12:00 PM 84.2 °F 92.3 °F 75.2 °F 74% 30.01 in 6.2 mi NE 11.5 mph - N/A   Partly Cloudy
1:00 PM 84.2 °F 92.3 °F 75.2 °F 74% 30.01 in 6.2 mi ENE 15.0 mph - N/A   Partly Cloudy
2:00 PM 84.2 °F 92.3 °F 75.2 °F 74% 29.98 in 6.2 mi ENE 15.0 mph - N/A   Scattered Clouds
3:00 PM 86.0 °F 95.1 °F 75.2 °F 70% 29.98 in 6.2 mi ENE 6.9 mph - N/A   Scattered Clouds
4:00 PM 80.6 °F 86.2 °F 75.2 °F 84% 29.95 in 6.2 mi NE 11.5 mph - N/A   Partly Cloudy
5:00 PM 82.4 °F 89.5 °F 75.2 °F 79% 29.95 in 6.2 mi ENE 13.8 mph - N/A   Partly Cloudy
6:00 PM 82.4 °F 89.5 °F 75.2 °F 79% 29.95 in 6.2 mi East 11.5 mph - N/A   Scattered Clouds
7:00 PM 80.6 °F 86.2 °F 75.2 °F 84% 29.98 in 6.2 mi East 6.9 mph - N/A   Scattered Clouds
8:00 PM 78.8 °F - 75.2 °F 89% 29.98 in 6.2 mi Calm Calm - N/A   Scattered Clouds
11:00 PM 73.4 °F - 71.6 °F 94% 30.04 in 6.2 mi Calm Calm - N/A   Partly Cloudy